| time (UTC) | temp F | wind direction | speed MPH | gust MPH | rain 1hr in | rain 24hr in | rain mn in | humidity % | barometer mb |
| 20260507182505 | 59 | 59 | 2.0 | 5.0 | 0.00 | 0.00 | 0.00 | 54 | 1016.3 |
| 20260507182009 | 59 | 58 | 0.0 | 3.0 | 0.00 | 0.00 | 0.00 | 54 | 1016.3 |
| 20260507181505 | 59 | 58 | 2.0 | 7.0 | 0.00 | 0.00 | 0.00 | 54 | 1016.3 |
| 20260507181006 | 59 | 29 | 1.0 | 6.0 | 0.00 | 0.00 | 0.00 | 55 | 1016.3 |
| 20260507174505 | 59 | 4 | 3.0 | 7.0 | 0.00 | 0.00 | 0.00 | 54 | 1016.3 |
| 20260507174006 | 59 | 27 | 3.0 | 7.0 | 0.00 | 0.00 | 0.00 | 53 | 1016.3 |
| 20260507173506 | 59 | 65 | 3.0 | 8.0 | 0.00 | 0.00 | 0.00 | 54 | 1016.3 |
| 20260507173006 | 60 | 10 | 2.0 | 6.0 | 0.00 | 0.00 | 0.00 | 57 | 1016.2 |
| 20260507172506 | 60 | 5 | 2.0 | 5.0 | 0.00 | 0.00 | 0.00 | 55 | 1016.3 |
| 20260507172006 | 60 | 0 | 5.0 | 8.0 | 0.00 | 0.00 | 0.00 | 53 | 1016.3 |
| 20260507171505 | 60 | 3 | 3.0 | 5.0 | 0.00 | 0.00 | 0.00 | 53 | 1016.3 |
| 20260507171006 | 60 | 0 | 1.0 | 8.0 | 0.00 | 0.00 | 0.00 | 54 | 1016.3 |
| 20260507165505 | 60 | 13 | 3.0 | 6.0 | 0.00 | 0.00 | 0.00 | 53 | 1016.3 |
| 20260507165005 | 60 | 17 | 4.0 | 9.0 | 0.00 | 0.00 | 0.00 | 54 | 1016.2 |
| 20260507164505 | 60 | 14 | 5.0 | 8.0 | 0.00 | 0.00 | 0.00 | 57 | 1016.2 |
| 20260507162505 | 60 | 333 | 1.0 | 3.0 | 0.00 | 0.00 | 0.00 | 54 | 1016.3 |
| 20260507162006 | 60 | 333 | 2.0 | 3.0 | 0.00 | 0.00 | 0.00 | 54 | 1016.2 |
| 20260507161505 | 59 | 61 | 2.0 | 8.0 | 0.00 | 0.00 | 0.00 | 53 | 1016.2 |
| 20260507161005 | 59 | 343 | 2.0 | 7.0 | 0.00 | 0.00 | 0.00 | 54 | 1016.2 |
| 20260507160005 | 60 | 3 | 4.0 | 7.0 | 0.00 | 0.00 | 0.00 | 54 | 1016.2 |
| 20260507153505 | 60 | 58 | 4.0 | 9.0 | 0.00 | 0.00 | 0.00 | 54 | 1016.0 |
| 20260507153006 | 60 | 350 | 3.0 | 6.0 | 0.00 | 0.00 | 0.00 | 53 | 1016.1 |
| 20260507152505 | 60 | 339 | 3.0 | 7.0 | 0.00 | 0.00 | 0.00 | 54 | 1016.0 |
| 20260507152005 | 60 | 343 | 3.0 | 8.0 | 0.00 | 0.00 | 0.00 | 56 | 1016.0 |
| 20260507151505 | 59 | 9 | 4.0 | 8.0 | 0.00 | 0.00 | 0.00 | 58 | 1016.1 |
| 20260507151006 | 59 | 315 | 2.0 | 10.0 | 0.00 | 0.00 | 0.00 | 57 | 1016.0 |
| 20260507150005 | 59 | 315 | 5.0 | 8.0 | 0.00 | 0.00 | 0.00 | 60 | 1016.0 |
| 20260507145505 | 59 | 355 | 5.0 | 8.0 | 0.00 | 0.00 | 0.00 | 60 | 1016.0 |
| 20260507144005 | 59 | 345 | 5.0 | 8.0 | 0.00 | 0.00 | 0.00 | 61 | 1016.0 |
| 20260507143505 | 59 | 312 | 3.0 | 7.0 | 0.00 | 0.00 | 0.00 | 62 | 1016.0 |
| 20260507143005 | 59 | 336 | 3.0 | 9.0 | 0.00 | 0.00 | 0.00 | 61 | 1015.9 |
| 20260507142505 | 59 | 342 | 3.0 | 7.0 | 0.00 | 0.00 | 0.00 | 62 | 1016.0 |
| 20260507142006 | 59 | 341 | 5.0 | 10.0 | 0.00 | 0.00 | 0.00 | 62 | 1016.1 |
| 20260507141505 | 59 | 321 | 6.0 | 12.0 | 0.00 | 0.00 | 0.00 | 62 | 1016.2 |
| 20260507141007 | 59 | 342 | 6.0 | 13.0 | 0.00 | 0.00 | 0.00 | 61 | 1016.2 |
| 20260507125005 | 58 | 337 | 7.0 | 12.0 | 0.00 | 0.00 | 0.00 | 62 | 1016.3 |
| 20260507124505 | 59 | 0 | 6.0 | 12.0 | 0.00 | 0.00 | 0.00 | 62 | 1016.2 |
| 20260507124005 | 59 | 345 | 7.0 | 12.0 | 0.00 | 0.00 | 0.00 | 61 | 1016.2 |
| 20260507123505 | 59 | 1 | 7.0 | 12.0 | 0.00 | 0.00 | 0.00 | 61 | 1016.2 |
| 20260507123005 | 59 | 345 | 7.0 | 12.0 | 0.00 | 0.00 | 0.00 | 60 | 1016.3 |
| 20260507122505 | 59 | 16 | 5.0 | 12.0 | 0.00 | 0.00 | 0.00 | 60 | 1016.2 |
| 20260507122005 | 59 | 329 | 6.0 | 10.0 | 0.00 | 0.00 | 0.00 | 62 | 1016.3 |
| 20260507120005 | 58 | 333 | 3.0 | 10.0 | 0.00 | 0.00 | 0.00 | 62 | 1016.3 |
| 20260507115504 | 58 | 327 | 6.0 | 10.0 | 0.00 | 0.00 | 0.00 | 61 | 1016.3 |
| 20260507115005 | 59 | 355 | 6.0 | 10.0 | 0.00 | 0.00 | 0.00 | 57 | 1016.3 |
| 20260507114504 | 59 | 1 | 3.0 | 8.0 | 0.00 | 0.00 | 0.00 | 48 | 1016.2 |
| 20260507114005 | 59 | 3 | 5.0 | 7.0 | 0.00 | 0.00 | 0.00 | 47 | 1016.3 |
| 20260507113505 | 59 | 3 | 5.0 | 7.0 | 0.00 | 0.00 | 0.00 | 49 | 1016.3 |
| 20260507113006 | 59 | 10 | 3.0 | 5.0 | 0.00 | 0.00 | 0.00 | 49 | 1016.3 |
| 20260507112505 | 59 | 10 | 3.0 | 10.0 | 0.00 | 0.00 | 0.00 | 47 | 1016.3 |
| 20260507112004 | 60 | 358 | 7.0 | 10.0 | 0.00 | 0.00 | 0.00 | 48 | 1016.3 |
| 20260507110005 | 59 | 56 | 5.0 | 9.0 | 0.00 | 0.00 | 0.00 | 52 | 1016.3 |
| 20260507105504 | 59 | 342 | 3.0 | 6.0 | 0.00 | 0.00 | 0.00 | 50 | 1016.3 |
| 20260507105005 | 59 | 342 | 3.0 | 7.0 | 0.00 | 0.00 | 0.00 | 50 | 1016.3 |
| 20260507103505 | 58 | 311 | 2.0 | 5.0 | 0.00 | 0.00 | 0.00 | 51 | 1016.4 |
| 20260507103004 | 58 | 338 | 3.0 | 7.0 | 0.00 | 0.00 | 0.00 | 52 | 1016.4 |
| 20260507102504 | 58 | 357 | 5.0 | 9.0 | 0.00 | 0.00 | 0.00 | 51 | 1016.4 |
| 20260507102007 | 58 | 3 | 3.0 | 8.0 | 0.00 | 0.00 | 0.00 | 54 | 1016.4 |
| 20260507101504 | 58 | 327 | 5.0 | 10.0 | 0.00 | 0.00 | 0.00 | 54 | 1016.3 |
| 20260507101004 | 57 | 8 | 4.0 | 9.0 | 0.00 | 0.00 | 0.00 | 57 | 1016.4 |
| 20260507095504 | 57 | 341 | 1.0 | 8.0 | 0.00 | 0.00 | 0.00 | 57 | 1016.3 |
| 20260507095005 | 57 | 335 | 5.0 | 9.0 | 0.00 | 0.00 | 0.00 | 57 | 1016.3 |
| 20260507094504 | 56 | 343 | 4.0 | 10.0 | 0.00 | 0.00 | 0.00 | 58 | 1016.3 |
| 20260507094005 | 57 | 0 | 3.0 | 7.0 | 0.00 | 0.00 | 0.00 | 59 | 1016.3 |
| 20260507093504 | 57 | 3 | 4.0 | 8.0 | 0.00 | 0.00 | 0.00 | 59 | 1016.3 |
| 20260507093004 | 57 | 3 | 5.0 | 6.0 | 0.00 | 0.00 | 0.00 | 58 | 1016.3 |
| 20260507092504 | 56 | 4 | 3.0 | 7.0 | 0.00 | 0.00 | 0.00 | 59 | 1016.3 |
| 20260507092004 | 56 | 355 | 5.0 | 8.0 | 0.00 | 0.00 | 0.00 | 60 | 1016.2 |
| 20260507091504 | 56 | 355 | 2.0 | 7.0 | 0.00 | 0.00 | 0.00 | 58 | 1016.2 |
| 20260507091004 | 56 | 355 | 5.0 | 8.0 | 0.00 | 0.00 | 0.00 | 60 | 1016.2 |
| 20260507085504 | 55 | 351 | 3.0 | 8.0 | 0.00 | 0.00 | 0.00 | 62 | 1016.1 |
| 20260507085005 | 55 | 3 | 3.0 | 6.0 | 0.00 | 0.00 | 0.00 | 63 | 1016.0 |
| 20260507084008 | 54 | 3 | 3.0 | 7.0 | 0.00 | 0.00 | 0.00 | 62 | 1016.0 |
| 20260507083508 | 54 | 3 | 3.0 | 6.0 | 0.00 | 0.00 | 0.00 | 63 | 1016.0 |
| 20260507082009 | 54 | 3 | 2.0 | 3.0 | 0.00 | 0.00 | 0.00 | 65 | 1016.2 |
| 20260507081508 | 54 | 4 | 3.0 | 6.0 | 0.00 | 0.00 | 0.00 | 67 | 1016.1 |
| 20260507081008 | 54 | 5 | 5.0 | 9.0 | 0.00 | 0.00 | 0.00 | 66 | 1016.0 |
| 20260507080008 | 54 | 4 | 2.0 | 6.0 | 0.00 | 0.00 | 0.00 | 67 | 1016.1 |
| 20260507075508 | 53 | 0 | 3.0 | 6.0 | 0.00 | 0.00 | 0.00 | 68 | 1016.0 |
| 20260507074008 | 52 | 0 | 2.0 | 7.0 | 0.00 | 0.00 | 0.00 | 70 | 1015.9 |
| 20260507073508 | 52 | 0 | 3.0 | 7.0 | 0.00 | 0.00 | 0.00 | 70 | 1015.9 |
| 20260507073008 | 52 | 0 | 5.0 | 8.0 | 0.00 | 0.00 | 0.00 | 70 | 1015.8 |
| 20260507072508 | 52 | 355 | 3.0 | 8.0 | 0.00 | 0.00 | 0.00 | 70 | 1015.8 |
| 20260507072009 | 52 | 355 | 5.0 | 7.0 | 0.00 | 0.00 | 0.00 | 70 | 1015.8 |
| 20260507062008 | 49 | 3 | 3.0 | 5.0 | 0.00 | 0.00 | 0.00 | 78 | 1015.8 |
| 20260507061508 | 49 | 4 | 3.0 | 5.0 | 0.00 | 0.00 | 0.00 | 79 | 1015.8 |
| 20260507054508 | 47 | 4 | 5.0 | 7.0 | 0.00 | 0.00 | 0.00 | 85 | 1015.4 |
| 20260507054008 | 47 | 3 | 3.0 | 6.0 | 0.00 | 0.00 | 0.00 | 86 | 1015.3 |
| 20260507052508 | 45 | 4 | 0.0 | 0.0 | 0.00 | 0.00 | 0.00 | 88 | 1015.3 |
| 20260507052008 | 45 | 3 | 0.0 | 0.0 | 0.00 | 0.00 | 0.00 | 89 | 1015.3 |
| 20260507051507 | 45 | 3 | 0.0 | 0.0 | 0.00 | 0.00 | 0.00 | 89 | 1015.2 |
| 20260507051008 | 44 | 4 | 0.0 | 2.0 | 0.00 | 0.00 | 0.00 | 89 | 1015.2 |
| 20260507044007 | 44 | 4 | 1.0 | 3.0 | 0.00 | 0.00 | 0.00 | 88 | 1014.8 |
| 20260507043507 | 44 | 4 | 1.0 | 3.0 | 0.00 | 0.00 | 0.00 | 88 | 1014.8 |
| 20260507043008 | 44 | 3 | 1.0 | 2.0 | 0.00 | 0.00 | 0.00 | 88 | 1014.8 |
| 20260507042508 | 44 | 3 | 1.0 | 2.0 | 0.00 | 0.00 | 0.00 | 88 | 1014.7 |
| 20260507042008 | 44 | 3 | 1.0 | 2.0 | 0.00 | 0.00 | 0.00 | 87 | 1014.7 |
| 20260507035508 | 45 | 4 | 1.0 | 2.0 | 0.00 | 0.00 | 0.00 | 87 | 1014.6 |
| 20260507035007 | 45 | 2 | 1.0 | 3.0 | 0.00 | 0.00 | 0.00 | 86 | 1014.6 |
| 20260507034508 | 45 | 3 | 1.0 | 2.0 | 0.00 | 0.00 | 0.00 | 86 | 1014.6 |
| 20260507033007 | 45 | 4 | 1.0 | 3.0 | 0.00 | 0.00 | 0.00 | 86 | 1014.4 |
| 20260507032507 | 45 | 3 | 2.0 | 3.0 | 0.00 | 0.00 | 0.00 | 86 | 1014.4 |
| 20260507025007 | 45 | 4 | 0.0 | 3.0 | 0.00 | 0.00 | 0.00 | 85 | 1014.2 |
| 20260507020007 | 45 | 4 | 1.0 | 2.0 | 0.00 | 0.00 | 0.00 | 84 | 1014.0 |
| 20260507015507 | 45 | 3 | 1.0 | 3.0 | 0.00 | 0.00 | 0.00 | 84 | 1013.9 |
| 20260507015007 | 45 | 3 | 1.0 | 3.0 | 0.00 | 0.00 | 0.00 | 84 | 1013.8 |
| 20260507014507 | 45 | 4 | 2.0 | 3.0 | 0.00 | 0.00 | 0.00 | 84 | 1013.8 |
| 20260507014007 | 46 | 3 | 1.0 | 3.0 | 0.00 | 0.00 | 0.00 | 84 | 1013.8 |
| 20260507013507 | 46 | 3 | 1.0 | 3.0 | 0.00 | 0.00 | 0.00 | 84 | 1013.8 |
| 20260507013007 | 46 | 3 | 1.0 | 6.0 | 0.00 | 0.00 | 0.00 | 84 | 1013.8 |
| 20260507012507 | 46 | 3 | 2.0 | 5.0 | 0.00 | 0.00 | 0.00 | 84 | 1013.8 |
| 20260507012007 | 46 | 4 | 2.0 | 3.0 | 0.00 | 0.00 | 0.00 | 84 | 1013.8 |
| 20260507011507 | 46 | 3 | 2.0 | 3.0 | 0.00 | 0.00 | 0.00 | 84 | 1013.7 |
| 20260507010007 | 46 | 3 | 1.0 | 3.0 | 0.00 | 0.00 | 0.00 | 84 | 1013.7 |
| 20260507005507 | 46 | 3 | 2.0 | 5.0 | 0.00 | 0.00 | 0.00 | 85 | 1013.7 |
| 20260507005007 | 46 | 3 | 2.0 | 3.0 | 0.00 | 0.00 | 0.00 | 85 | 1013.7 |
| 20260507002007 | 47 | 4 | 2.0 | 5.0 | 0.00 | 0.00 | 0.00 | 84 | 1013.7 |
| 20260507001507 | 47 | 3 | 2.0 | 6.0 | 0.00 | 0.00 | 0.00 | 85 | 1013.7 |
| 20260507001008 | 47 | 4 | 1.0 | 6.0 | 0.00 | 0.00 | 0.00 | 85 | 1013.7 |
| 20260507000007 | 47 | 3 | 2.0 | 6.0 | 0.00 | 0.00 | 0.00 | 85 | 1013.6 |
| 20260506235506 | 47 | 4 | 3.0 | 6.0 | 0.00 | 0.00 | 0.00 | 84 | 1013.6 |
| 20260506235007 | 47 | 3 | 3.0 | 7.0 | 0.00 | 0.00 | 0.00 | 84 | 1013.6 |
| 20260506233007 | 48 | 355 | 3.0 | 7.0 | 0.00 | 0.00 | 0.00 | 84 | 1013.3 |
| 20260506232506 | 48 | 355 | 2.0 | 5.0 | 0.00 | 0.00 | 0.00 | 83 | 1013.4 |
| 20260506232007 | 48 | 355 | 3.0 | 6.0 | 0.00 | 0.00 | 0.00 | 83 | 1013.3 |
| 20260506231507 | 48 | 355 | 2.0 | 20.0 | 0.00 | 0.00 | 0.00 | 83 | 1013.4 |
| 20260506231006 | 48 | 355 | 2.0 | 6.0 | 0.00 | 0.00 | 0.00 | 83 | 1013.3 |
| 20260506225007 | 48 | 0 | 3.0 | 7.0 | 0.00 | 0.00 | 0.00 | 82 | 1013.3 |
| 20260506222507 | 49 | 0 | 3.0 | 8.0 | 0.00 | 0.00 | 0.00 | 79 | 1013.2 |
| 20260506222007 | 49 | 0 | 3.0 | 6.0 | 0.00 | 0.00 | 0.00 | 79 | 1013.2 |
| 20260506214006 | 51 | 4 | 3.0 | 7.0 | 0.00 | 0.00 | 0.00 | 75 | 1012.8 |
| 20260506213506 | 51 | 4 | 3.0 | 7.0 | 0.00 | 0.00 | 0.00 | 74 | 1012.8 |
| 20260506212007 | 51 | 0 | 7.0 | 9.0 | 0.00 | 0.00 | 0.00 | 72 | 1012.7 |
| 20260506210006 | 52 | 2 | 4.0 | 10.0 | 0.00 | 0.00 | 0.00 | 70 | 1012.7 |
| 20260506202007 | 53 | 24 | 3.0 | 7.0 | 0.00 | 0.00 | 0.00 | 68 | 1012.5 |
| 20260506201506 | 53 | 3 | 3.0 | 6.0 | 0.00 | 0.00 | 0.00 | 68 | 1012.4 |
| 20260506201006 | 53 | 3 | 3.0 | 8.0 | 0.00 | 0.00 | 0.00 | 67 | 1012.3 |
| 20260506200006 | 54 | 20 | 2.0 | 3.0 | 0.00 | 0.00 | 0.00 | 67 | 1012.2 |
| 20260506195506 | 54 | 22 | 2.0 | 6.0 | 0.00 | 0.00 | 0.00 | 67 | 1012.2 |
| 20260506192006 | 55 | 62 | 2.0 | 7.0 | 0.00 | 0.00 | 0.00 | 65 | 1011.7 |
| 20260506191505 | 55 | 69 | 2.0 | 5.0 | 0.00 | 0.00 | 0.00 | 64 | 1011.7 |
| 20260506191007 | 55 | 69 | 2.0 | 5.0 | 0.00 | 0.00 | 0.00 | 64 | 1011.7 |
| 20260506190006 | 55 | 71 | 2.0 | 7.0 | 0.00 | 0.00 | 0.00 | 64 | 1011.6 |